Regional Weather Roundup
Issued by NWS

Home | Current Version | Previous Version | Text Only | Print | Product List | Glossary Off
Versions: 1 2 3 4 5 6 7 8 9 10 11 12 13 14 15 16 17 18 19 20 21 22 23 24 25 26 27 28 29 30 31 32 33 34 35 36 37 38 39 40 41 42 43 44 45 46 47 48 49 50

000
ASUS43 KBIS 301101
RWRND

NORTH DAKOTA REGIONAL WEATHER ROUNDUP
NATIONAL WEATHER SERVICE BISMARCK ND
500 AM CST FRI JAN 30 2015

NOTE: "FAIR" INDICATES FEW OR NO CLOUDS BELOW 12,000 FEET WITH NO
SIGNIFICANT WEATHER AND/OR OBSTRUCTIONS TO VISIBILITY.


NDZ001>003-009>011-017-301200-
NORTHWEST NORTH DAKOTA

CITY           SKY/WX    TMP DP  RH WIND       PRES   REMARKS
WILLISTON      CLEAR     18  15  88 CALM      30.15F
MINOT          PTCLDY    19  15  84 S6        30.17F WCI  11
MINOT AFB      CLEAR     18  18  99 S9        30.17F WCI   7
$$

NDZ018>021-031>035-040>046-301200-
SOUTHWEST NORTH DAKOTA

CITY           SKY/WX    TMP DP  RH WIND       PRES   REMARKS
BISMARCK       CLEAR     19  17  92 S10       30.29F WCI   7
DICKINSON      CLEAR     27  18  69 S14       30.14F WCI  16
GARRISON         N/A     19  16  88 SE6       30.20F WCI  11
HETTINGER ARPT PTCLDY    25  17  72 CALM      30.21F
$$

NDZ004>008-012>016-024-026-027-054-301200-
NORTHEAST NORTH DAKOTA

CITY           SKY/WX    TMP DP  RH WIND       PRES   REMARKS
GRAND FORKS    CLOUDY     9   2  73 S10       30.45F WCI  -5
GRND FRKS AFB  CLOUDY     8   2  74 S12       30.44F WCI  -7
DEVILS LAKE    CLOUDY    16  12  86 SE12      30.31F WCI   3
$$

NDZ022-023-025-028>030-036>039-047>053-301200-
SOUTHEAST NORTH DAKOTA

CITY           SKY/WX    TMP DP  RH WIND       PRES   REMARKS
FARGO          MOCLDY    10   3  73 S7        30.48F WCI  -1
JAMESTOWN      CLOUDY    19  16  88 S13       30.34F WCI   6
$$




USA.gov is the U.S. government's official web portal to all federal, state and local government web resources and services.